Location: Bellerive
(46.9237°N, 7.0223°E)
Time: 17:41:12
(UTC+00:00)

Cosmos 468 Rocket - Pass Details

Date: 09 April 2020
Orbit: 745 x 779 km, 74.0° (Epoch: 28 May)

Event Time Altitude Azimuth Distance (km) Brightness Sun altitude
Rises 20:33:46 0° 335° (NNW) 3,217 8.3 -22.2°
Reaches altitude 10° 20:36:09 10° 334° (NNW) 2,283 7.4 -22.5°
Maximum altitude 20:41:17 70° 252° (WSW) 799 4.1 -23.1°
Enters shadow 20:42:36 48° 187° (S) 970 4.2 -23.3°
